THORAD AGENA D DEB, 4720

Orbit data source: Space-Track

THORAD AGENA D DEB, 4720 is space debris in SSO originally from a launch on Wed, 08 Apr 1970 UTC launched from the Air Force Western Test Range (AFWTR). Debris objects in space refer to the collection of defunct objects orbiting the Earth. Examples of debris include non-operational satellites, rocket bodies, and fragments generated from explosions, collisions, or faulty payload assembly.

Loading next visibility...
Identifier
4720, 1970-025CE
Orbit
SSO
Country
Flag of USUS
Related business
Manufacturer
Unknown
Mission
Spacecraft
Bus & Motor
Unknown
Mass
Unknown
Launch date (UTC)
1970-04-08 (56 years ago)
Launch vehicle
Unknown
Launch site
Air Force Western Test Range (AFWTR)
Object type
Payload
Rocket body
Debris
Shape & HBR
Unknown shape, 0.1 m
Radar Cross Section
Medium (>0.1 m² and <1 m²)

Expand to show TLE details & history
Last TLE update: 9 hours ago

TLE from 9 hours ago
0 THORAD AGENA D DEB
1 04720U 70025CE  26236.85622187  .00000562  00000-0  36898-3 0  9995
2 04720 100.0507 204.6396 0084135 120.4542 240.4967 14.05164482860086
Epoch: 2026-08-24T20:32Z
TLE epoch observation values (Epoch: 2026-08-24T20:32:57.569Z)
Latitude
0.00004°
Longitude
-76.7322°
Altitude
909.264 km
Speed
7.382 km/s
True Right ascension
13h 38m 33s
True Declination
0° 00' 00"
Sunlit
Object was in daylight at epoch
Visualization orbit readout
Latitude
Unknown
Longitude
Unknown
Altitude
Unknown
Speed
Unknown
Apparent Right ascension
Unknown
Apparent Declination
Unknown
Sunlit
N/A
Visualization observer readout
Local Sidereal Time
21:11:57
Azimuth
Unknown
Elevation
Unknown
Doppler factor
Unknown
Orbital elements
Apogee altitude
934.222 km
Perigee altitude
812.204 km
Semi-major axis
7,251.35 km
Eccentricity
0.00841
Inclination
100.0507°
RAAN
204.6396°
Arg. of periapsis
120.4542°
True anomaly
239.66196°
Mean anomaly
240.4967°
Eccentric anomaly
240.07889°
Mean motion
3.51492 °/min
Orbital period
102.42 mins
BSTAR
0.00036898
Loading maneuver chart data...
Computing Atmospheric mass density...

Documentation

Showing up to 5 results
|